TimeMDT,TemperatureF,Dew PointF,Humidity,Sea Level PressureIn,VisibilityMPH,Wind Direction,Wind SpeedMPH,Gust SpeedMPH,PrecipitationIn,Events,Conditions,WindDirDegrees,DateUTC
12:53 AM,48.0,32.0,54,29.74,10.0,SSW,6.9,-,N/A,,Clear,200,2012-10-09 06:53:00
1:53 AM,35.6,28.4,75,29.81,10.0,Calm,Calm,-,N/A,,Clear,0,2012-10-09 07:53:00
2:53 AM,37.9,30.0,73,29.74,10.0,WSW,5.8,-,N/A,,Clear,250,2012-10-09 08:53:00
3:53 AM,39.9,30.9,70,29.75,10.0,NW,18.4,28.8,N/A,,Clear,320,2012-10-09 09:53:00
4:53 AM,37.0,30.0,76,29.79,10.0,NW,9.2,-,N/A,,Clear,310,2012-10-09 10:53:00
5:53 AM,37.0,30.9,79,29.85,10.0,NNW,13.8,-,N/A,,Clear,340,2012-10-09 11:53:00
6:53 AM,39.0,34.0,82,29.91,10.0,North,16.1,-,N/A,,Clear,350,2012-10-09 12:53:00
7:53 AM,41.0,37.0,86,29.95,10.0,North,13.8,-,N/A,,Clear,350,2012-10-09 13:53:00
8:53 AM,43.0,37.9,82,29.99,10.0,North,18.4,25.3,N/A,,Clear,360,2012-10-09 14:53:00
9:53 AM,43.0,37.0,80,30.04,10.0,NNE,15.0,-,N/A,,Scattered Clouds,20,2012-10-09 15:53:00
10:00 AM,44.6,37.4,76,30.07,10.0,North,16.1,24.2,N/A,,Mostly Cloudy,10,2012-10-09 16:00:00
10:51 AM,46.4,37.4,71,30.08,10.0,North,13.8,-,N/A,,Mostly Cloudy,10,2012-10-09 16:51:00
10:53 AM,46.0,37.9,73,30.06,10.0,NNE,13.8,23.0,N/A,,Overcast,20,2012-10-09 16:53:00
11:53 AM,45.0,37.0,74,30.08,10.0,NNE,19.6,25.3,N/A,,Overcast,20,2012-10-09 17:53:00
12:53 PM,48.0,37.0,66,30.07,10.0,NNE,17.3,25.3,N/A,,Overcast,20,2012-10-09 18:53:00
1:42 PM,51.8,35.6,54,30.09,10.0,North,15.0,-,N/A,,Overcast,10,2012-10-09 19:42:00
1:53 PM,53.1,34.0,48,30.09,10.0,NNE,18.4,24.2,N/A,,Mostly Cloudy,30,2012-10-09 19:53:00
2:53 PM,55.9,33.1,42,30.07,10.0,NNE,18.4,26.5,N/A,,Clear,20,2012-10-09 20:53:00
3:53 PM,55.9,32.0,40,30.09,10.0,NNE,15.0,-,N/A,,Clear,20,2012-10-09 21:53:00
4:53 PM,54.0,30.9,41,30.10,10.0,NNE,12.7,20.7,N/A,,Clear,20,2012-10-09 22:53:00
5:53 PM,50.0,30.0,46,30.13,10.0,NNE,11.5,-,N/A,,Clear,20,2012-10-09 23:53:00
6:53 PM,42.1,28.9,60,30.18,10.0,North,5.8,-,N/A,,Clear,10,2012-10-10 00:53:00
7:53 PM,37.9,28.0,68,30.22,10.0,NNW,4.6,-,N/A,,Clear,330,2012-10-10 01:53:00
8:53 PM,34.0,27.0,75,30.25,10.0,West,5.8,-,N/A,,Clear,280,2012-10-10 02:53:00
9:53 PM,32.0,27.0,82,30.27,10.0,WNW,5.8,-,N/A,,Clear,290,2012-10-10 03:53:00
10:53 PM,32.0,28.0,85,30.27,10.0,West,4.6,-,N/A,,Clear,270,2012-10-10 04:53:00
11:53 PM,32.0,28.0,85,30.27,10.0,WSW,5.8,-,N/A,,Clear,250,2012-10-10 05:53:00